Overview Statistics Trail Chart Weather Telemetry Raw packets
 

This is the latest recevied weather packets stored in our database for station/object KB3FKJ. If no packets are shown the sender has not sent any weather packets the latest 10 day(s).

<< 2 3 4 5 6 7 8 >>
Time Temp. Humidity Pressure Rain* Wind** Luminosity Snow
1788523384 21.11° C 91% 1015.7 hPa 0 mm - 38 W/m² -
1788523079 21.11° C 90% 1015.8 hPa 0 mm - 29 W/m² -
1788522774 21.11° C 90% 1015.8 hPa 0 mm - 24 W/m² -
1788522469 21.11° C 90% 1015.7 hPa 0 mm - 25 W/m² -
1788522169 21.11° C 90% 1015.9 hPa 0 mm - 21 W/m² -
1788521864 21.11° C 90% 1015.8 hPa 0 mm - 22 W/m² -
1788521563 21.11° C 89% 1015.8 hPa 0 mm - 19 W/m² -
1788521257 21.11° C 90% 1015.6 hPa 0 mm - 19 W/m² -
1788520953 21.11° C 90% 1015.7 hPa 0 mm - 18 W/m² -
1788520643 21.11° C 90% 1015.9 hPa 0 mm - 16 W/m² -
1788520339 21.11° C 89% 1015.7 hPa 0 mm - 12 W/m² -
1788520034 21.11° C 89% 1015.6 hPa 0 mm - 8 W/m² -
1788519733 21.11° C 88% 1015.7 hPa 0 mm - 7 W/m² -
1788519428 21.11° C 89% 1015.7 hPa 0 mm - 4 W/m² -
1788519123 20.56° C 89% 1015.7 hPa 0 mm - 3 W/m² -
1788518819 20.56° C 91% 1015.6 hPa 0 mm - 2 W/m² -
1788518514 20.56° C 90% 1015.5 hPa 0 mm - 1 W/m² -
1788518210 20.56° C 91% 1015.6 hPa 0 mm - 0 W/m² -
1788517905 20.56° C 91% 1015.6 hPa 0 mm - 0 W/m² -
1788517602 20.56° C 91% 1015.6 hPa 0 mm - 0 W/m² -
1788517296 20.56° C 91% 1015.4 hPa 0 mm - 0 W/m² -
1788516993 20.56° C 91% 1015.5 hPa 0 mm - 0 W/m² -
1788516689 20.56° C 91% 1015.7 hPa 0 mm - 0 W/m² -
1788516386 20.56° C 91% 1015.2 hPa 0 mm - 0 W/m² -
1788516079 20.56° C 92% 1015.2 hPa 0 mm - 0 W/m² -

* Rain latest hour (hover to see other rain measurements)
** Current wind speed in m/s (hover to see current wind gust speed)